Time,TemperatureF,DewpointF,PressureIn,WindDirection,WindDirectionDegrees,WindSpeedMPH,WindSpeedGustMPH,Humidity,HourlyPrecipIn,Conditions,Clouds,dailyrainin,SoftwareType,DateUTC
2013-08-17 11:50:00,73.6,55.4,30.27,South,180,3.8,3.8,53,0.00,,---,0.00,VWS V14.00,2013-08-17 15:50:00,
2013-08-17 11:52:00,73.6,54.9,30.27,SSE,158,1.1,1.1,52,0.00,,---,0.00,VWS V14.00,2013-08-17 15:52:00,
2013-08-17 11:57:00,74.1,55.9,30.27,SSE,158,0.0,0.0,53,0.00,,---,0.00,VWS V14.00,2013-08-17 15:57:00,
2013-08-17 12:02:00,74.5,56.2,30.27,South,180,2.7,3.1,53,0.00,,---,0.00,VWS V14.00,2013-08-17 16:02:00,
2013-08-17 12:07:00,74.8,55.5,30.27,West,270,0.0,0.0,51,0.00,,---,0.00,VWS V14.00,2013-08-17 16:07:00,
2013-08-17 12:12:00,75.0,55.1,30.27,ENE,68,2.2,2.2,50,0.00,,---,0.00,VWS V14.00,2013-08-17 16:12:00,
2013-08-17 12:17:00,75.4,56.0,30.24,South,180,2.0,2.9,51,0.00,,---,0.00,VWS V14.00,2013-08-17 16:17:00,
2013-08-17 12:22:00,75.6,55.6,30.24,WSW,248,2.0,2.0,50,0.00,,---,0.00,VWS V14.00,2013-08-17 16:22:00,
2013-08-17 12:27:00,75.9,55.4,30.24,South,180,1.6,1.6,49,0.00,,---,0.00,VWS V14.00,2013-08-17 16:27:00,
2013-08-17 12:32:00,76.1,53.8,30.24,ENE,68,2.2,2.2,46,0.00,,---,0.00,VWS V14.00,2013-08-17 16:32:00,
2013-08-17 12:37:00,76.1,53.2,30.24,NNW,338,1.1,2.9,45,0.00,,---,0.00,VWS V14.00,2013-08-17 16:37:00,
2013-08-17 12:43:00,76.3,54.0,30.24,SSE,158,4.0,4.0,46,0.00,,---,0.00,VWS V14.00,2013-08-17 16:43:00,
2013-08-17 12:48:00,76.6,54.3,30.24,NE,45,1.3,2.2,46,0.00,,---,0.00,VWS V14.00,2013-08-17 16:48:00,
2013-08-17 12:53:00,77.0,53.4,30.24,SSE,158,2.0,2.7,44,0.00,,---,0.00,VWS V14.00,2013-08-17 16:53:00,
2013-08-17 12:58:00,77.4,54.4,30.24,SSE,158,2.5,2.5,45,0.00,,---,0.00,VWS V14.00,2013-08-17 16:58:00,
2013-08-17 13:03:00,77.7,54.7,30.24,SSE,158,1.3,3.6,45,0.00,,---,0.00,VWS V14.00,2013-08-17 17:03:00,
2013-08-17 13:08:00,77.9,53.6,30.24,SSE,158,2.5,2.5,43,0.00,,---,0.00,VWS V14.00,2013-08-17 17:08:00,
2013-08-17 13:13:00,78.1,54.4,30.24,NE,45,1.3,1.3,44,0.00,,---,0.00,VWS V14.00,2013-08-17 17:13:00,
2013-08-17 13:18:00,77.9,53.6,30.24,SSE,158,2.5,4.0,43,0.00,,---,0.00,VWS V14.00,2013-08-17 17:18:00,
2013-08-17 13:23:00,78.3,55.2,30.24,NNE,22,2.0,3.1,45,0.00,,---,0.00,VWS V14.00,2013-08-17 17:23:00,
2013-08-17 13:28:00,78.8,54.4,30.24,SSW,202,2.5,5.8,43,0.00,,---,0.00,VWS V14.00,2013-08-17 17:28:00,
2013-08-17 13:33:00,78.8,54.4,30.24,SSE,158,1.6,3.4,43,0.00,,---,0.00,VWS V14.00,2013-08-17 17:33:00,
2013-08-17 13:38:00,79.2,55.4,30.24,East,90,1.1,1.6,44,0.00,,---,0.00,VWS V14.00,2013-08-17 17:38:00,
2013-08-17 13:43:00,79.0,54.0,30.24,SE,135,3.8,3.8,42,0.00,,---,0.00,VWS V14.00,2013-08-17 17:43:00,
2013-08-17 13:48:00,79.2,54.1,30.24,ENE,68,0.0,0.0,42,0.00,,---,0.00,VWS V14.00,2013-08-17 17:48:00,
2013-08-17 13:53:00,79.2,54.1,30.24,NE,45,2.9,2.9,42,0.00,,---,0.00,VWS V14.00,2013-08-17 17:53:00,
2013-08-17 13:58:00,79.3,54.3,30.24,South,180,1.3,1.3,42,0.00,,---,0.00,VWS V14.00,2013-08-17 17:58:00,
2013-08-17 14:03:00,79.2,53.5,30.24,West,270,2.0,2.0,41,0.00,,---,0.00,VWS V14.00,2013-08-17 18:03:00,
2013-08-17 14:08:00,79.3,53.6,30.24,SSE,158,1.6,1.6,41,0.00,,---,0.00,VWS V14.00,2013-08-17 18:08:00,
2013-08-17 14:13:00,79.5,53.8,30.24,SE,135,1.3,1.6,41,0.00,,---,0.00,VWS V14.00,2013-08-17 18:13:00,
2013-08-17 14:18:00,79.0,51.2,30.21,South,180,1.3,1.6,38,0.00,,---,0.00,VWS V14.00,2013-08-17 18:18:00,
2013-08-17 14:23:00,79.0,53.3,30.21,NNE,22,0.0,2.7,41,0.00,,---,0.00,VWS V14.00,2013-08-17 18:23:00,
2013-08-17 14:28:00,79.2,53.5,30.21,South,180,2.7,3.8,41,0.00,,---,0.00,VWS V14.00,2013-08-17 18:28:00,
2013-08-17 14:34:00,79.2,52.8,30.21,NE,45,0.9,2.5,40,0.00,,---,0.00,VWS V14.00,2013-08-17 18:34:00,
2013-08-17 14:39:00,79.2,51.4,30.21,ESE,112,1.6,2.0,38,0.00,,---,0.00,VWS V14.00,2013-08-17 18:39:00,
2013-08-17 14:44:00,78.6,51.6,30.21,North,0,1.1,1.1,39,0.00,,---,0.00,VWS V14.00,2013-08-17 18:44:00,
2013-08-17 14:49:00,78.6,51.6,30.21,South,180,2.2,2.5,39,0.00,,---,0.00,VWS V14.00,2013-08-17 18:49:00,
2013-08-17 14:54:00,78.1,51.8,30.21,ENE,68,1.3,1.3,40,0.00,,---,0.00,VWS V14.00,2013-08-17 18:54:00,
2013-08-17 14:59:00,78.8,53.1,30.21,SSE,158,3.4,3.4,41,0.00,,---,0.00,VWS V14.00,2013-08-17 18:59:00,
2013-08-17 15:04:00,79.0,52.6,30.21,SSW,202,0.0,1.6,40,0.00,,---,0.00,VWS V14.00,2013-08-17 19:04:00,
2013-08-17 15:09:00,79.0,53.3,30.21,SE,135,1.6,1.6,41,0.00,,---,0.00,VWS V14.00,2013-08-17 19:09:00,
2013-08-17 15:14:00,78.8,52.5,30.21,South,180,1.6,2.5,40,0.00,,---,0.00,VWS V14.00,2013-08-17 19:14:00,
2013-08-17 15:19:00,79.0,52.6,30.21,South,180,2.0,2.7,40,0.00,,---,0.00,VWS V14.00,2013-08-17 19:19:00,
2013-08-17 15:24:00,79.2,53.5,30.21,South,180,1.1,2.7,41,0.00,,---,0.00,VWS V14.00,2013-08-17 19:24:00,
2013-08-17 15:29:00,79.3,53.6,30.21,SSE,158,1.6,2.5,41,0.00,,---,0.00,VWS V14.00,2013-08-17 19:29:00,
2013-08-17 15:34:00,79.3,53.0,30.18,SSE,158,2.0,2.0,40,0.00,,---,0.00,VWS V14.00,2013-08-17 19:34:00,
2013-08-17 15:39:00,79.5,53.1,30.18,ESE,112,1.1,1.1,40,0.00,,---,0.00,VWS V14.00,2013-08-17 19:39:00,
2013-08-17 15:44:00,79.5,53.1,30.18,SSE,158,0.9,1.1,40,0.00,,---,0.00,VWS V14.00,2013-08-17 19:44:00,
2013-08-17 15:49:00,79.7,53.3,30.18,NE,45,1.1,2.5,40,0.00,,---,0.00,VWS V14.00,2013-08-17 19:49:00,
2013-08-17 15:54:00,79.5,53.1,30.18,SSE,158,1.1,1.1,40,0.00,,---,0.00,VWS V14.00,2013-08-17 19:54:00,
2013-08-17 15:59:00,79.5,53.1,30.18,SSE,158,1.3,2.9,40,0.00,,---,0.00,VWS V14.00,2013-08-17 19:59:00,
2013-08-17 16:04:00,79.7,53.9,30.15,South,180,2.0,2.0,41,0.00,,---,0.00,VWS V14.00,2013-08-17 20:04:00,
2013-08-17 16:09:00,79.7,53.3,30.15,South,180,0.0,0.0,40,0.00,,---,0.00,VWS V14.00,2013-08-17 20:09:00,
2013-08-17 16:14:00,79.7,53.3,30.15,SSE,158,4.0,4.0,40,0.00,,---,0.00,VWS V14.00,2013-08-17 20:14:00,
2013-08-17 16:19:00,79.7,53.9,30.15,South,180,1.1,2.9,41,0.00,,---,0.00,VWS V14.00,2013-08-17 20:19:00,
2013-08-17 16:25:00,79.0,52.6,30.15,South,180,2.0,2.5,40,0.00,,---,0.00,VWS V14.00,2013-08-17 20:25:00,
2013-08-17 16:30:00,78.8,52.5,30.18,SSE,158,1.3,2.9,40,0.00,,---,0.00,VWS V14.00,2013-08-17 20:30:00,
2013-08-17 16:35:00,78.6,52.3,30.18,South,180,0.0,1.3,40,0.00,,---,0.00,VWS V14.00,2013-08-17 20:35:00,
2013-08-17 16:40:00,78.4,52.1,30.18,South,180,2.2,2.2,40,0.00,,---,0.00,VWS V14.00,2013-08-17 20:40:00,
2013-08-17 16:45:00,78.6,53.0,30.15,East,90,1.1,1.1,41,0.00,,---,0.00,VWS V14.00,2013-08-17 20:45:00,
2013-08-17 16:50:00,78.4,52.8,30.15,ENE,68,0.9,0.9,41,0.00,,---,0.00,VWS V14.00,2013-08-17 20:50:00,
2013-08-17 16:55:00,78.1,51.8,30.15,SE,135,1.6,1.6,40,0.00,,---,0.00,VWS V14.00,2013-08-17 20:55:00,
2013-08-17 17:00:00,77.5,51.3,30.15,South,180,0.0,0.0,40,0.00,,---,0.00,VWS V14.00,2013-08-17 21:00:00,
2013-08-17 17:05:00,77.2,51.7,30.15,SSE,158,0.0,0.0,41,0.00,,---,0.00,VWS V14.00,2013-08-17 21:05:00,
2013-08-17 17:10:00,77.0,51.5,30.15,SE,135,1.3,1.6,41,0.00,,---,0.00,VWS V14.00,2013-08-17 21:10:00,
2013-08-17 17:15:00,77.2,51.7,30.18,East,90,1.1,3.6,41,0.00,,---,0.00,VWS V14.00,2013-08-17 21:15:00,
2013-08-17 17:20:00,77.2,51.7,30.18,SSE,158,2.0,2.0,41,0.00,,---,0.00,VWS V14.00,2013-08-17 21:20:00,
2013-08-17 17:25:00,77.2,51.7,30.18,East,90,1.6,1.6,41,0.00,,---,0.00,VWS V14.00,2013-08-17 21:25:00,
2013-08-17 17:31:00,77.0,52.2,30.18,East,90,1.1,1.1,42,0.00,,---,0.00,VWS V14.00,2013-08-17 21:31:00,
2013-08-17 17:36:00,76.3,52.2,30.18,SSE,158,0.0,0.0,43,0.00,,---,0.00,VWS V14.00,2013-08-17 21:36:00,
2013-08-17 17:41:00,76.1,52.0,30.18,SE,135,1.3,1.3,43,0.00,,---,0.00,VWS V14.00,2013-08-17 21:41:00,
2013-08-17 17:46:00,76.3,52.2,30.18,South,180,0.0,2.2,43,0.00,,---,0.00,VWS V14.00,2013-08-17 21:46:00,
2013-08-17 17:51:00,76.3,51.5,30.18,South,180,2.5,2.5,42,0.00,,---,0.00,VWS V14.00,2013-08-17 21:51:00,
2013-08-17 17:56:00,76.3,51.5,30.18,South,180,1.3,2.2,42,0.00,,---,0.00,VWS V14.00,2013-08-17 21:56:00,
2013-08-17 18:01:00,76.3,52.2,30.18,SE,135,1.3,1.3,43,0.00,,---,0.00,VWS V14.00,2013-08-17 22:01:00,
2013-08-17 18:06:00,76.3,52.2,30.18,South,180,0.0,0.0,43,0.00,,---,0.00,VWS V14.00,2013-08-17 22:06:00,
2013-08-17 18:11:00,76.5,52.3,30.18,SSE,158,1.3,1.3,43,0.00,,---,0.00,VWS V14.00,2013-08-17 22:11:00,
2013-08-17 18:16:00,76.5,53.0,30.18,SSE,158,1.1,1.1,44,0.00,,---,0.00,VWS V14.00,2013-08-17 22:16:00,
2013-08-17 18:21:00,76.5,53.0,30.18,South,180,1.1,1.1,44,0.00,,---,0.00,VWS V14.00,2013-08-17 22:21:00,
2013-08-17 18:26:00,76.5,53.0,30.18,ENE,68,1.6,2.7,44,0.00,,---,0.00,VWS V14.00,2013-08-17 22:26:00,
2013-08-17 18:31:00,76.1,52.6,30.18,SSE,158,1.3,1.3,44,0.00,,---,0.00,VWS V14.00,2013-08-17 22:31:00,
2013-08-17 18:36:00,75.9,52.5,30.18,SSE,158,0.0,0.0,44,0.00,,---,0.00,VWS V14.00,2013-08-17 22:36:00,
2013-08-17 18:41:00,75.6,52.1,30.18,South,180,0.0,1.3,44,0.00,,---,0.00,VWS V14.00,2013-08-17 22:41:00,
2013-08-17 18:46:00,75.4,52.0,30.18,South,180,1.1,1.1,44,0.00,,---,0.00,VWS V14.00,2013-08-17 22:46:00,
2013-08-17 18:51:00,75.0,52.3,30.18,South,180,0.0,0.0,45,0.00,,---,0.00,VWS V14.00,2013-08-17 22:51:00,
2013-08-17 18:57:00,74.8,52.1,30.18,South,180,0.0,0.0,45,0.00,,---,0.00,VWS V14.00,2013-08-17 22:57:00,
2013-08-17 19:02:00,74.5,52.4,30.18,South,180,0.0,0.0,46,0.00,,---,0.00,VWS V14.00,2013-08-17 23:02:00,
2013-08-17 19:07:00,74.7,52.5,30.18,South,180,0.0,2.2,46,0.00,,---,0.00,VWS V14.00,2013-08-17 23:07:00,
2013-08-17 19:12:00,75.0,53.4,30.18,SSE,158,1.1,1.1,47,0.00,,---,0.00,VWS V14.00,2013-08-17 23:12:00,
2013-08-17 19:17:00,75.4,53.2,30.15,SSE,158,0.0,1.6,46,0.00,,---,0.00,VWS V14.00,2013-08-17 23:17:00,
2013-08-17 19:22:00,75.4,52.6,30.15,South,180,0.0,0.0,45,0.00,,---,0.00,VWS V14.00,2013-08-17 23:22:00,
2013-08-17 19:27:00,75.0,52.9,30.15,South,180,0.9,0.9,46,0.00,,---,0.00,VWS V14.00,2013-08-17 23:27:00,
2013-08-17 19:32:00,74.8,52.7,30.18,South,180,0.0,0.0,46,0.00,,---,0.00,VWS V14.00,2013-08-17 23:32:00,
2013-08-17 19:37:00,74.7,52.5,30.18,South,180,0.0,0.0,46,0.00,,---,0.00,VWS V14.00,2013-08-17 23:37:00,
2013-08-17 19:42:00,74.5,52.4,30.18,South,180,0.0,0.0,46,0.00,,---,0.00,VWS V14.00,2013-08-17 23:42:00,
2013-08-17 19:47:00,74.3,52.8,30.15,South,180,0.9,0.9,47,0.00,,---,0.00,VWS V14.00,2013-08-17 23:47:00,
2013-08-17 19:52:00,73.9,52.5,30.15,South,180,0.0,0.0,47,0.00,,---,0.00,VWS V14.00,2013-08-17 23:52:00,
2013-08-17 19:57:00,73.8,52.9,30.15,South,180,0.0,0.0,48,0.00,,---,0.00,VWS V14.00,2013-08-17 23:57:00,
2013-08-17 20:02:00,73.4,53.1,30.18,South,180,0.0,0.0,49,0.00,,---,0.00,VWS V14.00,2013-08-18 00:02:00,
2013-08-17 20:07:00,73.2,53.5,30.18,South,180,0.0,0.0,50,0.00,,---,0.00,VWS V14.00,2013-08-18 00:07:00,
2013-08-17 20:12:00,72.9,53.2,30.18,South,180,0.0,0.0,50,0.00,,---,0.00,VWS V14.00,2013-08-18 00:12:00,
2013-08-17 20:17:00,72.5,52.8,30.15,South,180,0.0,0.0,50,0.00,,---,0.00,VWS V14.00,2013-08-18 00:17:00,
2013-08-17 20:23:00,72.1,53.6,30.15,South,180,0.0,0.0,52,0.00,,---,0.00,VWS V14.00,2013-08-18 00:23:00,
2013-08-17 20:28:00,71.8,52.7,30.15,South,180,0.0,0.0,51,0.00,,---,0.00,VWS V14.00,2013-08-18 00:28:00,
2013-08-17 20:33:00,71.6,53.1,30.18,South,180,0.0,0.0,52,0.00,,---,0.00,VWS V14.00,2013-08-18 00:33:00,
2013-08-17 20:38:00,71.2,53.8,30.18,South,180,0.0,0.0,54,0.00,,---,0.00,VWS V14.00,2013-08-18 00:38:00,
2013-08-17 20:43:00,70.9,53.4,30.18,South,180,0.0,0.0,54,0.00,,---,0.00,VWS V14.00,2013-08-18 00:43:00,
2013-08-17 20:48:00,70.5,53.6,30.18,South,180,0.0,0.0,55,0.00,,---,0.00,VWS V14.00,2013-08-18 00:48:00,
2013-08-17 20:53:00,70.2,53.8,30.18,South,180,0.0,0.0,56,0.00,,---,0.00,VWS V14.00,2013-08-18 00:53:00,
2013-08-17 20:58:00,69.8,53.9,30.18,South,180,0.0,0.0,57,0.00,,---,0.00,VWS V14.00,2013-08-18 00:58:00,
2013-08-17 21:03:00,69.4,53.6,30.15,SSW,202,0.0,0.0,57,0.00,,---,0.00,VWS V14.00,2013-08-18 01:03:00,
2013-08-17 21:08:00,69.3,53.9,30.15,SSW,202,0.0,0.0,58,0.00,,---,0.00,VWS V14.00,2013-08-18 01:08:00,
2013-08-17 21:13:00,68.9,54.0,30.15,SSW,202,0.0,0.0,59,0.00,,---,0.00,VWS V14.00,2013-08-18 01:13:00,
2013-08-17 21:18:00,68.5,54.1,30.18,SSW,202,0.0,0.0,60,0.00,,---,0.00,VWS V14.00,2013-08-18 01:18:00,
2013-08-17 21:23:00,68.4,54.4,30.18,SSW,202,0.0,0.0,61,0.00,,---,0.00,VWS V14.00,2013-08-18 01:23:00,
2013-08-17 21:28:00,68.0,54.5,30.18,SSW,202,0.0,0.0,62,0.00,,---,0.00,VWS V14.00,2013-08-18 01:28:00,
2013-08-17 21:33:00,68.0,54.5,30.18,SSW,202,0.0,0.0,62,0.00,,---,0.00,VWS V14.00,2013-08-18 01:33:00,
2013-08-17 21:38:00,67.8,54.8,30.18,SSW,202,0.0,0.0,63,0.00,,---,0.00,VWS V14.00,2013-08-18 01:38:00,
2013-08-17 21:44:00,67.6,54.6,30.18,SSW,202,0.0,0.0,63,0.00,,---,0.00,VWS V14.00,2013-08-18 01:44:00,
2013-08-17 21:49:00,67.5,54.9,30.15,SSW,202,0.0,0.0,64,0.00,,---,0.00,VWS V14.00,2013-08-18 01:49:00,
2013-08-17 21:54:00,67.3,54.7,30.15,SSW,202,0.0,0.0,64,0.00,,---,0.00,VWS V14.00,2013-08-18 01:54:00,
2013-08-17 21:59:00,67.1,55.0,30.15,SSW,202,0.0,0.0,65,0.00,,---,0.00,VWS V14.00,2013-08-18 01:59:00,
2013-08-17 22:04:00,66.9,54.8,30.18,SSW,202,0.0,0.0,65,0.00,,---,0.00,VWS V14.00,2013-08-18 02:04:00,
2013-08-17 22:09:00,66.9,54.8,30.18,SSW,202,0.0,0.0,65,0.00,,---,0.00,VWS V14.00,2013-08-18 02:09:00,
2013-08-17 22:14:00,66.7,55.0,30.18,SSW,202,0.0,0.0,66,0.00,,---,0.00,VWS V14.00,2013-08-18 02:14:00,
2013-08-17 22:19:00,66.6,54.9,30.15,SSW,202,0.0,0.0,66,0.00,,---,0.00,VWS V14.00,2013-08-18 02:19:00,
2013-08-17 22:24:00,66.4,55.1,30.15,SSW,202,0.0,0.0,67,0.00,,---,0.00,VWS V14.00,2013-08-18 02:24:00,
2013-08-17 22:29:00,66.2,54.9,30.15,SSW,202,0.0,0.0,67,0.00,,---,0.00,VWS V14.00,2013-08-18 02:29:00,
2013-08-17 22:34:00,66.0,55.2,30.18,SSW,202,0.0,0.0,68,0.00,,---,0.00,VWS V14.00,2013-08-18 02:34:00,
2013-08-17 22:39:00,65.8,55.0,30.18,SSW,202,0.0,0.0,68,0.00,,---,0.00,VWS V14.00,2013-08-18 02:39:00,
2013-08-17 22:44:00,65.7,55.2,30.18,SSW,202,0.0,0.0,69,0.00,,---,0.00,VWS V14.00,2013-08-18 02:44:00,
2013-08-17 22:49:00,65.7,55.2,30.21,SSW,202,0.0,0.0,69,0.00,,---,0.00,VWS V14.00,2013-08-18 02:49:00,
2013-08-17 22:54:00,65.5,55.0,30.21,SSW,202,0.0,0.0,69,0.00,,---,0.00,VWS V14.00,2013-08-18 02:54:00,
2013-08-17 22:59:00,65.3,55.3,30.21,SSW,202,0.0,0.0,70,0.00,,---,0.00,VWS V14.00,2013-08-18 02:59:00,
2013-08-17 23:04:00,65.1,55.1,30.18,SSW,202,0.0,0.0,70,0.00,,---,0.00,VWS V14.00,2013-08-18 03:04:00,
2013-08-17 23:10:00,64.8,55.2,30.18,SSW,202,0.0,0.0,71,0.00,,---,0.00,VWS V14.00,2013-08-18 03:10:00,
2013-08-17 23:15:00,64.6,55.0,30.18,SSW,202,0.0,0.0,71,0.00,,---,0.00,VWS V14.00,2013-08-18 03:15:00,
2013-08-17 23:20:00,64.4,54.8,30.18,SSW,202,0.0,0.0,71,0.00,,---,0.00,VWS V14.00,2013-08-18 03:20:00,
2013-08-17 23:25:00,64.2,55.0,30.18,SSW,202,0.0,0.0,72,0.00,,---,0.00,VWS V14.00,2013-08-18 03:25:00,
2013-08-17 23:30:00,64.0,54.8,30.18,SSW,202,0.0,0.0,72,0.00,,---,0.00,VWS V14.00,2013-08-18 03:30:00,
2013-08-17 23:35:00,63.9,55.0,30.18,SSW,202,0.0,0.0,73,0.00,,---,0.00,VWS V14.00,2013-08-18 03:35:00,
2013-08-17 23:40:00,63.9,55.0,30.18,SSW,202,0.0,0.0,73,0.00,,---,0.00,VWS V14.00,2013-08-18 03:40:00,
2013-08-17 23:45:00,63.7,55.2,30.18,SSW,202,0.0,0.0,74,0.00,,---,0.00,VWS V14.00,2013-08-18 03:45:00,
2013-08-17 23:50:00,63.5,55.4,30.18,SSW,202,0.0,0.0,75,0.00,,---,0.00,VWS V14.00,2013-08-18 03:50:00,
2013-08-17 23:55:00,63.3,55.3,30.18,SSW,202,0.0,0.0,75,0.00,,---,0.00,VWS V14.00,2013-08-18 03:55:00,